sat.trackr.live / text

‹ back to catalog

STARLINK-36140

NORAD 67034 · 2025-294E

PAYLOAD ACTIVE UNKNOWN

§ Identity

Operator
Country
US
Launch date
2025-12-11
Launch site
AFETR
Launch vehicle
Mass (kg)
RCS (m²)

Purposes: comms

External: N2YO · Heavens-Above · Gunter

§ Orbital elements

Epoch: 2026-09-20T14:14:55.827744Z

Period
94.27 min
Inclination
42.9990°
Eccentricity
0.0000912
Mean motion
15.27585085 rev/d
Perigee alt
482.4 km
Apogee alt
483.7 km
Semi-major
6,861.2 km
B*
3.6582e-4
RAAN
17.6746°
Arg perigee
252.0689°
Mean anomaly
108.0063°
Rev number
4,460

§ Raw data

STARLINK-361401 67034U 25294E   26263.59370171  .00009820  00000+0  36582-3 0  99992 67034  42.9990  17.6746 0000912 252.0689 108.0063 15.27585085 44608

JSON: /api/v1/satellites/67034 · /tle

For live sub-satellite position, see the globe view (requires WebGL).

§ Visibility from observer

Set your observer location to see the next 7 days of passes ≥ 10°. The values pass through the URL so the page stays shareable.

No JS? Fill the form by hand. The geolocation button needs JavaScript.